TimeEDT,TemperatureF,Dew PointF,Humidity,Sea Level PressureIn,VisibilityMPH,Wind Direction,Wind SpeedMPH,Gust SpeedMPH,PrecipitationIn,Events,Conditions,WindDirDegrees,DateUTC
12:54 AM,39.0,37.0,93,30.10,10.0,Calm,Calm,-,N/A,,Clear,0,2013-04-28 04:54:00
1:54 AM,37.0,35.1,93,30.09,3.0,Calm,Calm,-,N/A,,Clear,0,2013-04-28 05:54:00
2:54 AM,35.1,33.1,92,30.06,4.0,Calm,Calm,-,N/A,,Clear,0,2013-04-28 06:54:00
3:54 AM,35.1,33.1,92,30.05,10.0,Calm,Calm,-,N/A,,Clear,0,2013-04-28 07:54:00
4:25 AM,33.8,30.2,87,30.03,1.5,Calm,Calm,-,N/A,,Clear,0,2013-04-28 08:25:00
4:37 AM,33.8,32.0,93,30.03,3.0,Calm,Calm,-,N/A,,Clear,0,2013-04-28 08:37:00
4:54 AM,34.0,32.0,92,30.04,9.0,Calm,Calm,-,N/A,,Clear,0,2013-04-28 08:54:00
5:04 AM,33.8,30.2,87,30.03,1.8,Calm,Calm,-,N/A,,Clear,0,2013-04-28 09:04:00
5:24 AM,30.2,30.2,100,30.02,3.0,Calm,Calm,-,N/A,,Clear,0,2013-04-28 09:24:00
5:39 AM,32.0,30.2,93,30.02,2.0,Calm,Calm,-,N/A,,Clear,0,2013-04-28 09:39:00
5:54 AM,30.9,28.9,92,30.03,4.0,Calm,Calm,-,N/A,,Clear,0,2013-04-28 09:54:00
6:54 AM,30.9,28.9,92,30.03,5.0,Calm,Calm,-,N/A,,Clear,0,2013-04-28 10:54:00
7:54 AM,39.0,35.1,86,30.04,10.0,Calm,Calm,-,N/A,,Clear,0,2013-04-28 11:54:00
9:54 AM,57.0,39.0,51,30.02,10.0,SE,4.6,-,N/A,,Overcast,140,2013-04-28 13:54:00
10:54 AM,61.0,37.0,41,30.00,10.0,SE,3.5,-,N/A,,Partly Cloudy,130,2013-04-28 14:54:00
11:54 AM,66.0,34.0,30,29.97,10.0,ESE,6.9,-,N/A,,Mostly Cloudy,120,2013-04-28 15:54:00
12:54 PM,66.9,32.0,27,29.96,10.0,SE,8.1,-,N/A,,Overcast,130,2013-04-28 16:54:00
1:54 PM,64.0,37.0,37,29.94,10.0,ENE,10.4,-,N/A,,Overcast,70,2013-04-28 17:54:00
2:54 PM,66.9,37.0,33,29.91,10.0,ENE,11.5,-,N/A,,Scattered Clouds,70,2013-04-28 18:54:00
3:54 PM,66.0,34.0,30,29.89,10.0,NE,12.7,-,N/A,,Overcast,40,2013-04-28 19:54:00
4:54 PM,66.9,36.0,32,29.87,10.0,NNE,11.5,-,N/A,,Partly Cloudy,30,2013-04-28 20:54:00
5:54 PM,64.0,37.9,38,29.86,10.0,NNE,5.8,-,N/A,,Clear,30,2013-04-28 21:54:00
6:54 PM,63.0,39.0,41,29.84,10.0,ENE,5.8,-,N/A,,Clear,60,2013-04-28 22:54:00
7:54 PM,61.0,39.9,46,29.83,10.0,NE,4.6,-,N/A,,Clear,50,2013-04-28 23:54:00
8:54 PM,55.9,41.0,57,29.84,10.0,ENE,3.5,-,N/A,,Clear,60,2013-04-29 00:54:00
9:54 PM,57.0,44.1,62,29.85,10.0,SE,9.2,-,N/A,,Clear,130,2013-04-29 01:54:00
10:54 PM,55.9,44.1,64,29.85,10.0,SE,9.2,-,N/A,,Clear,130,2013-04-29 02:54:00
11:54 PM,55.0,45.0,69,29.84,10.0,SSE,6.9,-,N/A,,Clear,150,2013-04-29 03:54:00